DW7447 Weather Reports


time (UTC)temp
C
wind
direction
speed
KPH
gust
KPH
rain 1hr
cm
rain 24hr
cm
rain mn
cm
humidity
%
barometer
mb
20260502160321 18 251 4.8 17.7 0.00 0.00 0.00 61 1013.2
20260502152323 19 240 8.0 17.7 0.00 0.00 0.00 59 1013.5
20260502151823 19 195 8.0 17.7 0.00 0.00 0.00 60 1013.5
20260502151322 19 271 6.4 12.9 0.00 0.00 0.00 60 1013.6
20260502150821 19 185 6.4 14.5 0.00 0.00 0.00 60 1013.6
20260502150321 18 223 6.4 17.7 0.00 0.00 0.00 60 1013.6
20260502130326 18 250 9.7 25.7 0.00 0.00 0.00 60 1014.4
20260502123323 18 237 11.3 25.7 0.00 0.00 0.00 62 1014.7
20260502122822 18 237 16.1 25.7 0.00 0.00 0.00 62 1014.6
20260502122321 18 241 9.7 22.5 0.00 0.00 0.00 63 1014.5
20260502121821 18 234 14.5 25.7 0.00 0.00 0.00 62 1014.6
20260502121323 18 234 17.7 25.7 0.00 0.00 0.00 62 1014.6
20260502120822 18 200 14.5 24.1 0.00 0.00 0.00 62 1014.6
20260502120321 18 252 12.9 24.1 0.00 0.00 0.00 62 1014.6
20260502115822 18 257 12.9 22.5 0.00 0.00 0.00 63 1014.7
20260502114823 18 274 9.7 22.5 0.00 0.00 0.00 65 1014.6
20260502113822 17 258 14.5 25.7 0.00 0.00 0.00 65 1014.7
20260502112824 17 241 11.3 24.1 0.00 0.00 0.00 66 1014.8
20260502112321 17 257 12.9 24.1 0.00 0.00 0.00 67 1014.7
20260502111324 17 216 14.5 25.7 0.00 0.00 0.00 68 1015.0
20260502110822 17 227 9.7 27.4 0.00 0.00 0.00 69 1015.0
20260502110336 17 224 12.9 27.4 0.00 0.00 0.00 69 1014.8
20260502105821 17 188 16.1 24.1 0.00 0.00 0.00 69 1014.9
20260502105322 17 264 12.9 24.1 0.00 0.00 0.00 69 1014.8
20260502104821 17 224 11.3 24.1 0.00 0.00 0.00 70 1014.9
20260502104321 17 231 12.9 24.1 0.00 0.00 0.00 70 1014.8
20260502103822 16 240 12.9 24.1 0.00 0.00 0.00 70 1014.8
20260502103320 16 240 9.7 27.4 0.00 0.00 0.00 70 1014.9
20260502102822 16 233 9.7 27.4 0.00 0.00 0.00 72 1014.9
20260502102320 16 190 17.7 27.4 0.00 0.00 0.00 71 1014.9
20260502101319 16 227 11.3 24.1 0.00 0.00 0.00 72 1015.0
20260502100320 16 207 12.9 22.5 0.00 0.00 0.00 74 1015.1
20260502090820 13 210 12.9 29.0 0.00 0.00 0.00 80 1015.6
20260502090320 13 228 16.1 29.0 0.00 0.00 0.00 81 1015.5
20260502071320 11 234 12.9 30.6 0.00 0.00 0.00 88 1015.3
20260502070818 11 220 16.1 27.4 0.00 0.00 0.00 89 1015.3
20260502065819 10 219 16.1 25.7 0.00 0.00 0.00 89 1015.3
20260502064820 10 185 12.9 27.4 0.00 0.00 0.00 89 1015.4
20260502063819 10 238 14.5 29.0 0.00 0.00 0.00 89 1015.5
20260502063319 10 231 14.5 24.1 0.00 0.00 0.00 89 1015.4
20260502062819 10 226 14.5 22.5 0.00 0.00 0.00 90 1015.4
20260502062320 10 216 12.9 22.5 0.00 0.00 0.00 89 1015.3
20260502061821 10 228 12.9 27.4 0.00 0.00 0.00 89 1015.3
20260502061319 10 245 14.5 27.4 0.00 0.00 0.00 89 1015.5
20260502060818 10 213 11.3 22.5 0.00 0.00 0.00 89 1015.4
20260502060320 10 231 8.0 29.0 0.00 0.00 0.00 89 1015.4
20260502055819 10 233 14.5 29.0 0.00 0.00 0.00 89 1015.3
20260502055317 10 188 8.0 20.9 0.00 0.00 0.00 89 1015.3
20260502054819 10 240 14.5 20.9 0.00 0.00 0.00 90 1015.5
20260502054320 10 243 4.8 17.7 0.00 0.00 0.00 89 1015.5
20260502053320 10 233 4.8 19.3 0.00 0.00 0.00 89 1015.5
20260502052818 10 245 8.0 19.3 0.00 0.00 0.00 89 1015.4
20260502051819 10 233 6.4 17.7 0.00 0.00 0.00 88 1015.4
20260502051320 10 210 8.0 24.1 0.00 0.00 0.00 89 1015.5
20260502050820 10 213 11.3 24.1 0.00 0.00 0.00 88 1015.3
20260502050320 10 224 11.3 24.1 0.00 0.00 0.00 88 1015.4
20260502045819 10 224 11.3 24.1 0.00 0.00 0.00 88 1015.4
20260502044821 10 203 9.7 30.6 0.00 0.00 0.00 88 1015.5
20260502044321 10 202 12.9 30.6 0.00 0.00 0.00 89 1015.6
20260502043819 10 209 11.3 25.7 0.00 0.00 0.00 89 1015.5
20260502043320 10 214 16.1 25.7 0.00 0.00 0.00 89 1015.5
20260502042820 10 227 14.5 25.7 0.00 0.00 0.00 89 1015.5
20260502042318 10 240 16.1 25.7 0.00 0.00 0.00 89 1015.5
20260502041819 10 216 11.3 25.7 0.00 0.00 0.00 89 1015.5
20260502041321 10 213 14.5 25.7 0.00 0.00 0.00 89 1015.5
20260502040820 10 214 16.1 25.7 0.00 0.00 0.00 89 1015.5
20260502040321 10 226 12.9 27.4 0.00 0.00 0.00 89 1015.5
20260502035821 10 214 12.9 27.4 0.00 0.00 0.00 88 1015.5
20260502035321 10 245 11.3 25.7 0.00 0.00 0.00 88 1015.4
20260502034820 10 214 9.7 25.7 0.00 0.00 0.00 88 1015.6
20260502034320 10 224 14.5 22.5 0.00 0.00 0.00 88 1015.6
20260502033818 10 228 11.3 27.4 0.00 0.00 0.00 88 1015.6
20260502033318 10 231 14.5 27.4 0.00 0.00 0.00 88 1015.5
20260502032820 10 226 11.3 24.1 0.00 0.00 0.00 88 1015.6
20260502031819 11 204 14.5 24.1 0.00 0.00 0.00 88 1015.5
20260502031320 11 207 14.5 22.5 0.00 0.00 0.00 88 1015.5
20260502030820 11 176 12.9 22.5 0.00 0.00 0.00 88 1015.4
20260502030319 11 210 8.0 20.9 0.00 0.00 0.00 88 1015.5
20260502025821 11 214 8.0 20.9 0.00 0.00 0.00 88 1015.6
20260502025318 11 257 9.7 17.7 0.00 0.00 0.00 89 1015.7
20260502024820 11 230 6.4 17.7 0.00 0.00 0.00 88 1015.7
20260502024321 11 220 9.7 17.7 0.00 0.00 0.00 88 1015.6
20260502023820 11 276 6.4 14.5 0.00 0.00 0.00 88 1015.6
20260502023321 11 233 6.4 19.3 0.00 0.00 0.00 87 1015.7
20260502022820 11 276 9.7 19.3 0.00 0.00 0.00 87 1015.8
20260502022320 11 244 6.4 17.7 0.00 0.00 0.00 87 1015.8
20260502021818 11 245 8.0 17.7 0.00 0.00 0.00 87 1015.9
20260502021319 11 228 6.4 17.7 0.00 0.00 0.00 86 1016.0
20260502020821 11 224 9.7 17.7 0.00 0.00 0.00 86 1015.9
20260502015821 11 233 8.0 19.3 0.00 0.00 0.00 86 1016.0
20260502015321 11 204 9.7 19.3 0.00 0.00 0.00 86 1016.1
20260502014819 11 212 6.4 19.3 0.00 0.00 0.00 86 1016.1
20260502013821 12 237 8.0 17.7 0.00 0.00 0.00 83 1016.2
20260502013320 12 219 9.7 19.3 0.00 0.00 0.00 83 1016.2
20260502012320 12 262 8.0 19.3 0.00 0.00 0.00 83 1016.3
20260502011820 12 228 8.0 14.5 0.00 0.00 0.00 84 1016.4
20260502011322 12 244 6.4 12.9 0.00 0.00 0.00 83 1016.6
20260502010821 12 234 6.4 12.9 0.00 0.00 0.00 84 1016.6
20260502010319 12 261 4.8 14.5 0.00 0.00 0.00 84 1016.6
20260502005822 12 235 4.8 14.5 0.00 0.00 0.00 84 1016.7
20260502005321 12 224 8.0 14.5 0.00 0.00 0.00 85 1016.8
20260502004818 12 231 6.4 17.7 0.00 0.00 0.00 85 1016.7
20260502004321 12 262 8.0 17.7 0.00 0.00 0.00 86 1016.8
20260502003823 12 288 9.7 17.7 0.00 0.00 0.00 86 1016.8
20260502003320 12 227 4.8 11.3 0.00 0.00 0.00 86 1016.8
20260502002821 12 248 6.4 9.7 0.00 0.00 0.00 86 1016.8
20260502002321 12 210 1.6 12.9 0.00 0.00 0.00 85 1016.9
20260502001803 12 251 4.8 12.9 0.00 0.00 0.00 85 1016.9
20260502001303 12 209 4.8 12.9 0.00 0.00 0.00 85 1016.9
20260501235305 13 224 4.8 14.5 0.00 0.00 0.00 85 1017.2
20260501234801 13 251 8.0 12.9 0.00 0.00 0.00 85 1017.0
20260501234302 13 226 6.4 12.9 0.00 0.00 0.00 85 1017.0
20260501233802 13 227 6.4 12.9 0.00 0.00 0.00 85 1017.1
20260501233301 13 217 4.8 11.3 0.00 0.00 0.00 84 1017.0
20260501232802 13 247 4.8 11.3 0.00 0.00 0.00 84 1017.1
20260501232305 13 252 3.2 11.3 0.00 0.00 0.00 83 1017.2
20260501231802 13 244 1.6 11.3 0.00 0.00 0.00 83 1017.2
20260501231302 13 250 6.4 11.3 0.00 0.00 0.00 82 1017.2
20260501230803 13 244 3.2 12.9 0.00 0.00 0.00 82 1017.2
20260501225804 13 224 3.2 12.9 0.00 0.00 0.00 82 1017.2
20260501225306 13 243 4.8 14.5 0.00 0.00 0.00 82 1017.1
20260501224800 13 233 4.8 17.7 0.00 0.00 0.00 81 1017.1
20260501224303 13 238 9.7 17.7 0.00 0.00 0.00 81 1017.2
20260501223801 13 197 8.0 19.3 0.00 0.00 0.00 80 1017.1
20260501222801 14 257 8.0 17.7 0.00 0.00 0.00 79 1017.2
20260501221801 14 212 9.7 17.7 0.00 0.00 0.00 78 1017.2
20260501221302 14 226 6.4 19.3 0.00 0.00 0.00 78 1017.1
20260501220803 14 231 11.3 19.3 0.00 0.00 0.00 78 1017.1
20260501220302 14 213 9.7 17.7 0.00 0.00 0.00 78 1017.2
20260501215305 14 195 8.0 17.7 0.00 0.00 0.00 77 1017.1
20260501214802 14 235 6.4 14.5 0.00 0.00 0.00 76 1017.2
20260501214302 14 214 4.8 14.5 0.00 0.00 0.00 76 1017.1
20260501213803 15 240 6.4 12.9 0.00 0.00 0.00 75 1017.2
20260501213302 15 231 4.8 12.9 0.00 0.00 0.00 74 1017.2
20260501212802 15 234 8.0 17.7 0.00 0.00 0.00 74 1017.3
20260501212305 15 224 4.8 17.7 0.00 0.00 0.00 73 1017.2
20260501211802 15 250 4.8 12.9 0.00 0.00 0.00 73 1017.2
20260501211302 15 247 6.4 19.3 0.00 0.00 0.00 72 1017.2
20260501210802 15 237 4.8 19.3 0.00 0.00 0.00 72 1017.1
20260501210304 15 217 8.0 19.3 0.00 0.00 0.00 71 1017.2
20260501205803 15 234 8.0 19.3 0.00 0.00 0.00 70 1017.3
20260501205305 15 243 6.4 14.5 0.00 0.00 0.00 69 1017.2
20260501204801 15 257 8.0 22.5 0.00 0.00 0.00 69 1017.3
20260501204301 15 235 11.3 22.5 0.00 0.00 0.00 67 1017.3
20260501203756 16 245 14.5 22.5 0.00 0.00 0.00 67 1017.3
20260501203257 16 279 12.9 25.7 0.00 0.00 0.00 66 1017.4
20260501202754 16 210 8.0 25.7 0.00 0.00 0.00 65 1017.3
20260501202242 16 264 9.7 17.7 0.00 0.00 0.00 65 1017.3
20260501201240 17 237 9.7 14.5 0.00 0.00 0.00 65 1017.3
20260501200735 17 269 8.0 17.7 0.00 0.00 0.00 64 1017.2
20260501200232 17 261 8.0 17.7 0.00 0.00 0.00 65 1017.3
20260501195731 17 269 8.0 14.5 0.00 0.00 0.00 65 1017.2
20260501195232 17 258 4.8 14.5 0.00 0.00 0.00 64 1017.2
20260501194730 17 254 6.4 14.5 0.00 0.00 0.00 64 1017.1
20260501193220 18 257 9.7 17.7 0.00 0.00 0.00 63 1017.0
20260501192721 18 257 8.0 12.9 0.00 0.00 0.00 63 1017.0
20260501191721 19 224 6.4 17.7 0.00 0.00 0.00 62 1017.0
20260501190721 19 275 6.4 19.3 0.00 0.00 0.00 61 1016.9
20260501190220 20 259 9.7 19.3 0.00 0.00 0.00 60 1016.9
20260501185719 20 227 6.4 14.5 0.00 0.00 0.00 60 1016.9
20260501184720 21 286 9.7 19.3 0.00 0.00 0.00 58 1016.7
20260501183722 21 196 6.4 19.3 0.00 0.00 0.00 56 1016.4
20260501183220 21 200 8.0 17.7 0.00 0.00 0.00 57 1016.3
20260501182721 21 189 8.0 19.3 0.00 0.00 0.00 54 1016.3
20260501182220 21 209 6.4 19.3 0.00 0.00 0.00 54 1016.4
20260501181722 21 204 4.8 11.3 0.00 0.00 0.00 54 1016.3
20260501181219 21 188 4.8 11.3 0.00 0.00 0.00 54 1016.2
20260501175720 22 188 3.2 9.7 0.00 0.00 0.00 51 1016.4
20260501175222 22 196 4.8 12.9 0.00 0.00 0.00 51 1016.4
20260501174721 22 188 6.4 12.9 0.00 0.00 0.00 51 1016.4
20260501174220 22 196 6.4 17.7 0.00 0.00 0.00 50 1016.3
20260501173721 22 206 8.0 19.3 0.00 0.00 0.00 49 1016.3
20260501173220 23 192 8.0 19.3 0.00 0.00 0.00 49 1016.3
20260501172720 23 206 9.7 17.7 0.00 0.00 0.00 49 1016.4
20260501172220 23 203 8.0 17.7 0.00 0.00 0.00 48 1016.4
20260501171722 23 223 4.8 14.5 0.00 0.00 0.00 47 1016.4
20260501171220 23 230 8.0 17.7 0.00 0.00 0.00 48 1016.4
20260501170720 23 278 4.8 19.3 0.00 0.00 0.00 47 1016.4
20260501170221 23 203 6.4 19.3 0.00 0.00 0.00 46 1016.4
20260501165720 23 230 11.3 20.9 0.00 0.00 0.00 46 1016.6
20260501165220 23 220 4.8 24.1 0.00 0.00 0.00 46 1016.6
20260501164720 23 219 11.3 24.1 0.00 0.00 0.00 45 1016.6
20260501163719 24 228 11.3 19.3 0.00 0.00 0.00 45 1016.6
20260501163221 24 192 9.7 25.7 0.00 0.00 0.00 45 1016.6
20260501162722 24 176 11.3 25.7 0.00 0.00 0.00 45 1016.4
20260501162220 24 161 11.3 25.7 0.00 0.00 0.00 44 1016.4
20260501161720 24 159 14.5 25.7 0.00 0.00 0.00 44 1016.6
20260501161220 24 138 6.4 20.9 0.00 0.00 0.00 43 1016.6
20260501160721 24 196 9.7 22.5 0.00 0.00 0.00 43 1016.7